GW4453 Weather Reports


time (UTC)temp
C
wind
direction
speed
KPH
gust
KPH
rain 1hr
cm
rain 24hr
cm
rain mn
cm
humidity
%
barometer
mb
20260504173705 10 293 8.0 11.3 0.00 0.00 0.00 52 1019.3
20260504173202 10 29 14.5 16.1 0.00 0.00 0.00 51 1019.4
20260504172658 9 11 11.3 11.3 0.00 0.00 0.00 53 1019.4
20260504172155 10 359 11.3 16.1 0.00 0.00 0.00 54 1019.3
20260504171651 10 0 9.7 12.9 0.00 0.00 0.00 52 1019.5
20260504171148 9 48 11.3 20.9 0.00 0.00 0.00 53 1019.3
20260504170645 9 353 17.7 24.1 0.00 0.00 0.00 53 1019.3
20260504170142 9 355 9.7 14.5 0.00 0.00 0.00 53 1019.4
20260504151028 8 352 22.5 29.0 0.00 0.00 0.00 55 1018.7
20260504150525 8 355 19.3 22.5 0.00 0.00 0.00 55 1018.8
20260504140951 7 5 14.5 16.1 0.00 0.00 0.00 62 1018.5
20260504140447 7 7 14.5 16.1 0.00 0.00 0.00 63 1018.5
20260504130412 6 8 12.9 16.1 0.00 0.00 0.00 68 1016.9
20260504110259 0 67 3.2 3.2 0.00 0.00 0.00 81 1014.4
20260504100217 0 204 3.2 3.2 0.00 0.00 0.00 83 1013.7
20260504090140 -1 84 0.0 0.0 0.00 0.00 0.00 82 1014.2
20260504081610 0 184 4.8 4.8 0.00 0.00 0.00 79 1013.8
20260504081106 0 77 3.2 3.2 0.00 0.00 0.00 78 1013.9
20260504080603 0 121 0.0 0.0 0.00 0.00 0.00 78 1013.8
20260504050415 3 244 1.6 1.6 0.00 0.00 0.00 64 1014.3
20260504045912 3 245 0.0 1.6 0.00 0.00 0.00 62 1014.4
20260504045408 4 245 1.6 1.6 0.00 0.00 0.00 59 1014.7
20260504044904 5 245 1.6 1.6 0.00 0.00 0.00 56 1014.7
20260504044402 5 246 1.6 1.6 0.00 0.00 0.00 55 1014.6
20260504043859 5 245 3.2 3.2 0.00 0.00 0.00 57 1014.5
20260504043356 5 245 4.8 4.8 0.00 0.00 0.00 56 1014.6
20260504042854 3 246 3.2 3.2 0.00 0.00 0.00 59 1014.7
20260504042349 3 244 1.6 3.2 0.00 0.00 0.00 62 1014.7
20260504041846 3 244 8.0 8.0 0.00 0.00 0.00 63 1014.7
20260504041342 4 56 0.0 0.0 0.00 0.00 0.00 60 1014.6
20260504040838 4 65 0.0 1.6 0.00 0.00 0.00 58 1014.7
20260504040336 5 61 0.0 0.0 0.00 0.00 0.00 56 1014.9
20260504035832 6 51 1.6 1.6 0.00 0.00 0.00 52 1015.1
20260504035330 6 64 3.2 3.2 0.00 0.00 0.00 53 1015.1
20260504034827 5 64 0.0 1.6 0.00 0.00 0.00 50 1015.2
20260504034325 5 79 0.0 0.0 0.00 0.00 0.00 52 1015.1
20260504033821 6 101 1.6 1.6 0.00 0.00 0.00 49 1014.7
20260504033319 7 131 1.6 1.6 0.00 0.00 0.00 48 1015.2
20260504032815 7 126 3.2 3.2 0.00 0.00 0.00 47 1014.9
20260504032313 7 116 1.6 1.6 0.00 0.00 0.00 46 1014.9
20260504031809 7 86 0.0 0.0 0.00 0.00 0.00 47 1014.6
20260504031307 6 88 0.0 0.0 0.00 0.00 0.00 48 1015.1
20260504030803 7 107 0.0 0.0 0.00 0.00 0.00 49 1014.8
20260504030300 7 97 0.0 0.0 0.00 0.00 0.00 49 1014.7
20260504025756 7 88 0.0 0.0 0.00 0.00 0.00 47 1014.8
20260504025253 7 78 0.0 0.0 0.00 0.00 0.00 47 1014.7
20260504024750 7 97 0.0 0.0 0.00 0.00 0.00 49 1014.6
20260504024247 7 93 1.6 1.6 0.00 0.00 0.00 49 1014.5
20260504023744 8 109 1.6 3.2 0.00 0.00 0.00 47 1014.6
20260504023240 10 265 1.6 1.6 0.00 0.00 0.00 44 1014.5
20260504022736 12 269 1.6 1.6 0.00 0.00 0.00 39 1014.5
20260504022232 13 8 3.2 3.2 0.00 0.00 0.00 34 1014.0
20260504021729 13 335 0.0 1.6 0.00 0.00 0.00 34 1014.3
20260504021226 13 332 0.0 0.0 0.00 0.00 0.00 34 1014.3
20260504020723 14 314 4.8 4.8 0.00 0.00 0.00 33 1014.4
20260504020220 15 307 3.2 3.2 0.00 0.00 0.00 32 1014.3
20260504015716 15 316 3.2 3.2 0.00 0.00 0.00 32 1014.4
20260504015213 16 292 4.8 4.8 0.00 0.00 0.00 30 1014.3
20260504014708 17 300 4.8 4.8 0.00 0.00 0.00 29 1014.4
20260504014205 17 330 4.8 4.8 0.00 0.00 0.00 28 1014.5
20260504013703 17 315 4.8 4.8 0.00 0.00 0.00 27 1014.4
20260504013200 18 297 6.4 8.0 0.00 0.00 0.00 27 1014.4
20260504012656 19 313 4.8 4.8 0.00 0.00 0.00 26 1014.5
20260504012155 19 18 1.6 1.6 0.00 0.00 0.00 25 1014.3
20260504011652 19 13 1.6 1.6 0.00 0.00 0.00 25 1014.6
20260504011148 19 268 1.6 3.2 0.00 0.00 0.00 25 1014.5
20260504010644 20 338 1.6 3.2 0.00 0.00 0.00 25 1014.7
20260504010139 20 306 8.0 9.7 0.00 0.00 0.00 25 1015.1
20260504005637 20 357 6.4 8.0 0.00 0.00 0.00 24 1015.2
20260504005133 20 299 8.0 11.3 0.00 0.00 0.00 25 1014.9
20260504004632 20 317 3.2 3.2 0.00 0.00 0.00 26 1014.8
20260504004129 20 343 1.6 1.6 0.00 0.00 0.00 26 1015.1
20260504003625 20 282 6.4 9.7 0.00 0.00 0.00 25 1015.4
20260504003121 20 292 4.8 4.8 0.00 0.00 0.00 25 1015.3
20260504002618 20 344 16.1 22.5 0.00 0.00 0.00 25 1014.9
20260504002116 20 344 11.3 12.9 0.00 0.00 0.00 26 1015.1
20260504001614 20 347 8.0 9.7 0.00 0.00 0.00 27 1014.9
20260504001109 20 291 14.5 17.7 0.00 0.00 0.00 27 1015.1
20260504000607 19 358 4.8 4.8 0.00 0.00 0.00 29 1015.3
20260504000104 20 6 3.2 4.8 0.00 0.00 0.00 28 1015.3
20260503235602 21 303 3.2 3.2 0.00 0.00 0.00 27 1015.5
20260503235059 21 354 9.7 9.7 0.00 0.00 0.00 28 1015.2
20260503234556 21 256 1.6 3.2 0.00 0.00 0.00 27 1015.3
20260503234054 21 272 4.8 8.0 0.00 0.00 0.00 27 1015.3
20260503233551 21 344 6.4 8.0 0.00 0.00 0.00 27 1015.4
20260503233047 20 352 9.7 11.3 0.00 0.00 0.00 27 1015.3
20260503232544 20 10 8.0 11.3 0.00 0.00 0.00 29 1015.6
20260503232041 20 339 6.4 8.0 0.00 0.00 0.00 26 1015.5
20260503231539 20 349 6.4 8.0 0.00 0.00 0.00 27 1015.6
20260503231035 20 3 6.4 8.0 0.00 0.00 0.00 27 1015.6
20260503230532 19 344 8.0 9.7 0.00 0.00 0.00 27 1015.3
20260503230030 20 8 6.4 8.0 0.00 0.00 0.00 27 1015.6
20260503225526 21 317 1.6 1.6 0.00 0.00 0.00 26 1015.9
20260503225021 21 5 8.0 11.3 0.00 0.00 0.00 27 1015.6
20260503224520 21 335 11.3 12.9 0.00 0.00 0.00 25 1015.7
20260503224017 20 293 6.4 9.7 0.00 0.00 0.00 26 1015.6
20260503223515 19 299 12.9 16.1 0.00 0.00 0.00 28 1015.9
20260503223010 20 3 8.0 11.3 0.00 0.00 0.00 28 1015.9
20260503222509 21 341 8.0 11.3 0.00 0.00 0.00 26 1016.1
20260503222006 20 339 8.0 9.7 0.00 0.00 0.00 28 1015.9
20260503221504 20 342 14.5 16.1 0.00 0.00 0.00 27 1015.7
20260503221001 20 338 9.7 12.9 0.00 0.00 0.00 27 1015.9
20260503220457 21 336 12.9 14.5 0.00 0.00 0.00 27 1016.1
20260503215954 21 40 8.0 11.3 0.00 0.00 0.00 26 1016.1
20260503215451 21 339 4.8 8.0 0.00 0.00 0.00 26 1016.3
20260503214949 21 340 4.8 8.0 0.00 0.00 0.00 27 1016.5
20260503214447 20 352 6.4 9.7 0.00 0.00 0.00 28 1016.8
20260503213943 20 337 8.0 14.5 0.00 0.00 0.00 29 1016.4
20260503213442 20 337 4.8 4.8 0.00 0.00 0.00 30 1016.6
20260503212937 20 299 6.4 8.0 0.00 0.00 0.00 28 1016.9
20260503212435 20 330 11.3 14.5 0.00 0.00 0.00 30 1016.8
20260503211932 20 341 8.0 12.9 0.00 0.00 0.00 29 1016.8
20260503211430 21 344 8.0 9.7 0.00 0.00 0.00 27 1017.1
20260503210925 21 333 4.8 8.0 0.00 0.00 0.00 28 1017.2
20260503210422 20 277 8.0 11.3 0.00 0.00 0.00 31 1017.2
20260503205916 20 317 9.7 12.9 0.00 0.00 0.00 31 1017.0
20260503205414 20 302 14.5 20.9 0.00 0.00 0.00 28 1017.4
20260503204910 20 286 12.9 14.5 0.00 0.00 0.00 35 1017.4
20260503204408 20 284 14.5 17.7 0.00 0.00 0.00 33 1017.3
20260503203905 20 255 8.0 11.3 0.00 0.00 0.00 34 1017.6
20260503203402 20 327 11.3 14.5 0.00 0.00 0.00 34 1017.7
20260503202859 20 243 6.4 8.0 0.00 0.00 0.00 34 1017.7
20260503202357 19 303 3.2 3.2 0.00 0.00 0.00 35 1017.9
20260503201855 18 250 6.4 9.7 0.00 0.00 0.00 36 1017.7
20260503201351 19 265 9.7 11.3 0.00 0.00 0.00 35 1017.9
20260503200849 18 239 1.6 1.6 0.00 0.00 0.00 36 1018.1
20260503200344 19 130 4.8 8.0 0.00 0.00 0.00 35 1018.0
20260503195842 18 171 8.0 11.3 0.00 0.00 0.00 37 1018.2
20260503195338 18 203 12.9 16.1 0.00 0.00 0.00 37 1018.4
20260503194836 18 219 8.0 11.3 0.00 0.00 0.00 39 1018.4
20260503194332 18 302 4.8 4.8 0.00 0.00 0.00 38 1018.8
20260503193828 18 203 9.7 11.3 0.00 0.00 0.00 39 1018.9
20260503193324 18 320 4.8 4.8 0.00 0.00 0.00 39 1018.7
20260503192820 17 184 6.4 11.3 0.00 0.00 0.00 41 1019.3
20260503192316 15 44 1.6 1.6 0.00 0.00 0.00 44 1019.1
20260503191812 15 285 4.8 8.0 0.00 0.00 0.00 44 1019.4
20260503191309 15 325 11.3 12.9 0.00 0.00 0.00 45 1019.3
20260503190806 16 271 16.1 17.7 0.00 0.00 0.00 41 1019.3
20260503190303 17 21 1.6 3.2 0.00 0.00 0.00 37 1019.0
20260503185800 17 226 4.8 8.0 0.00 0.00 0.00 36 1018.7
20260503185256 17 247 12.9 16.1 0.00 0.00 0.00 36 1018.8
20260503184755 17 197 4.8 4.8 0.00 0.00 0.00 37 1019.0
20260503184252 17 180 4.8 4.8 0.00 0.00 0.00 35 1019.1
20260503183748 17 206 17.7 22.5 0.00 0.00 0.00 35 1019.1
20260503183246 17 244 9.7 11.3 0.00 0.00 0.00 37 1019.5
20260503182743 17 189 4.8 4.8 0.00 0.00 0.00 36 1019.6
20260503182242 19 212 11.3 12.9 0.00 0.00 0.00 35 1019.7
20260503181738 18 255 9.7 11.3 0.00 0.00 0.00 34 1019.8
20260503181236 18 213 16.1 20.9 0.00 0.00 0.00 35 1019.9
20260503180732 18 207 11.3 14.5 0.00 0.00 0.00 35 1020.1
20260503180230 18 230 19.3 22.5 0.00 0.00 0.00 36 1020.1
20260503175726 17 231 12.9 16.1 0.00 0.00 0.00 38 1020.3
20260503175225 18 108 4.8 8.0 0.00 0.00 0.00 37 1020.4
20260503174720 17 32 1.6 3.2 0.00 0.00 0.00 38 1020.5
20260503174219 17 252 8.0 11.3 0.00 0.00 0.00 39 1020.5